Weather History for Chino, CA

Change the Weather History Date:

Wednesday, November 2, 2011

  Actual Average Record
Temperature  
Mean Temperature 66 °F -  
Max Temperature 80 °F 71 °F 95 °F (2010)
Min Temperature 53 °F 44 °F 41 °F (2000)
Cooling Degree Days 2    
Growing Degree Days 16 (Base 50)    
Moisture  
Dew Point 12 °F    
Average Humidity 17    
Maximum Humidity 86    
Minimum Humidity 5    
Precipitation  
Precipitation 0.00 in - - ()
Sea Level Pressure  
Sea Level Pressure 30.06 in    
Wind  
Wind Speed 10 mph (ESE)    
Max Wind Speed 21 mph    
Max Gust Speed 30 mph    
Visibility 9 miles    
Events      
Averages and records for this station are not official NWS values.
T = Trace of Precipitation, MM = Missing Value Source: NWS Daily Summary

Daily Weather History Graph

Daily Weather History Graph

Search for Another Location

Airport:

Trip Planner

Search our weather history database for the weather conditions in past years. The results will help you decide how hot, cold, wet, or windy it might be!

Date:

Astronomy

Nov. 02, 2011 Rise Set
Actual Time 7:10 AM PDT 5:56 PM PDT
Civil Twilight 6:44 AM PDT 6:22 PM PDT
Nautical Twilight 6:15 AM PDT 6:52 PM PDT
Astronomical Twilight 5:46 AM PDT 7:21 PM PDT
Moon 1:33 PM PDT (11/2) No Moon Set
Length of Visible Light 11h 38m
Length of Day
10h 46m
Waxing Crescent, 51% of the Moon is Illuminated
Nov 2
Waxing Crescent
Nov 10
Full
Nov 18
Last Quarter
Nov 24
New
Dec 2
First Quarter

Hourly Weather History & Observations

Time (PDT) Temp. Dew Point Humidity Pressure Visibility Wind Dir Wind Speed Gust Speed Precip Events Conditions
12:53 AM 53.1 °F 48.9 °F 86% 30.00 in 5.0 mi Calm Calm - N/A   Clear
1:53 AM 70.0 °F 8.1 °F 9% 29.99 in 6.0 mi East 8.1 mph - N/A   Haze
2:53 AM 54.0 °F 46.9 °F 77% 30.01 in 5.0 mi Variable 3.5 mph - N/A   Haze
3:53 AM 61.0 °F 27.0 °F 27% 30.00 in 8.0 mi Variable 3.5 mph - N/A   Clear
4:53 AM 66.0 °F 6.1 °F 9% 30.02 in 10.0 mi East 15.0 mph 26.5 mph N/A   Clear
5:53 AM 64.9 °F 3.9 °F 9% 30.04 in 10.0 mi East 15.0 mph 25.3 mph N/A   Clear
6:53 AM 64.0 °F 1.0 °F 8% 30.06 in 10.0 mi East 16.1 mph 26.5 mph N/A   Clear
7:53 AM 64.9 °F 1.9 °F 8% 30.09 in 10.0 mi East 17.3 mph 25.3 mph N/A   Clear
8:53 AM 68.0 °F 3.9 °F 8% 30.12 in 10.0 mi East 17.3 mph 24.2 mph N/A   Clear
9:53 AM 72.0 °F 3.9 °F 7% 30.12 in 10.0 mi East 16.1 mph 28.8 mph N/A   Clear
10:53 AM 75.0 °F 7.0 °F 7% 30.13 in 10.0 mi East 20.7 mph 29.9 mph N/A   Clear
11:53 AM 77.0 °F 1.9 °F 5% 30.12 in 10.0 mi East 17.3 mph 26.5 mph N/A   Clear
12:53 PM 79.0 °F 10.0 °F 7% 30.08 in 10.0 mi East 18.4 mph 26.5 mph N/A   Clear
1:53 PM 80.1 °F 10.0 °F 7% 30.06 in 10.0 mi East 13.8 mph 25.3 mph N/A   Clear
2:53 PM 79.0 °F 12.0 °F 8% 30.05 in 10.0 mi East 12.7 mph 23.0 mph N/A   Clear
3:53 PM 78.1 °F 9.0 °F 7% 30.04 in 10.0 mi East 16.1 mph 21.9 mph N/A   Clear
4:53 PM 75.0 °F 10.9 °F 9% 30.03 in 10.0 mi East 11.5 mph - N/A   Clear
5:53 PM 70.0 °F 10.9 °F 10% 30.04 in 10.0 mi East 12.7 mph - N/A   Clear
6:53 PM 66.9 °F 10.9 °F 11% 30.05 in 10.0 mi SE 9.2 mph - N/A   Clear
8:53 PM 63.0 °F 12.0 °F 14% 30.07 in 10.0 mi SSE 10.4 mph - N/A   Clear
9:53 PM 62.1 °F 12.0 °F 14% 30.07 in 10.0 mi SSE 9.2 mph - N/A   Clear
10:53 PM 60.1 °F 12.9 °F 16% 30.07 in 10.0 mi SE 8.1 mph - N/A   Clear
11:53 PM 57.0 °F 15.1 °F 19% 30.08 in 10.0 mi ESE 4.6 mph - N/A   Clear